This is the latest recevied weather packets stored in our database for station/object EA1ZE. If no packets are shown the sender has not sent any weather packets the latest 10 day(s).
| Time | Temp. | Humidity | Pressure | Rain* | Wind** | Luminosity | Snow |
|---|---|---|---|---|---|---|---|
| 1787686305 | 22.22° C | 53% | 1012.2 hPa | 0 mm | - | - | - |
| 1787685392 | 22.22° C | 53% | 1012.3 hPa | 0 mm | - | - | - |
| 1787684499 | 22.78° C | 52% | 1012.3 hPa | 0 mm | - | - | - |
| 1787683596 | 23.33° C | 51% | 1012.4 hPa | 0 mm | - | - | - |
| 1787682640 | 23.33° C | 51% | 1012.5 hPa | 0 mm | - | - | - |
| 1787681739 | 23.89° C | 50% | 1012.4 hPa | 0 mm | - | - | - |
| 1787680837 | 24.44° C | 48% | 1012.4 hPa | 0 mm | - | - | - |
| 1787679937 | 24.44° C | 48% | 1012.5 hPa | 0 mm | - | - | - |
| 1787679035 | 24.44° C | 48% | 1012.5 hPa | 0 mm | - | - | - |
| 1787678137 | 23.89° C | 49% | 1012.5 hPa | 0 mm | - | - | - |
| 1787677235 | 23.89° C | 48% | 1012.5 hPa | 0 mm | - | - | - |
| 1787676334 | 23.89° C | 48% | 1012.5 hPa | 0 mm | - | - | - |
| 1787675435 | 23.89° C | 48% | 1012.4 hPa | 0 mm | - | - | - |
| 1787674552 | 24.44° C | 48% | 1012.3 hPa | 0 mm | - | - | - |
| 1787673631 | 23.89° C | 50% | 1012.4 hPa | 0 mm | - | - | - |
| 1787672730 | 23.33° C | 50% | 1012.7 hPa | 0 mm | - | - | - |
| 1787671838 | 23.33° C | 49% | 1012.5 hPa | 0 mm | - | - | - |
| 1787670930 | 23.33° C | 48% | 1012.5 hPa | 0 mm | - | - | - |
| 1787670033 | 23.33° C | 49% | 1012.7 hPa | 0 mm | - | - | - |
| 1787669128 | 23.33° C | 48% | 1012.8 hPa | 0 mm | - | - | - |
| 1787668235 | 23.33° C | 49% | 1012.9 hPa | 0 mm | - | - | - |
| 1787667328 | 23.33° C | 50% | 1013.2 hPa | 0 mm | - | - | - |
| 1787666427 | 23.33° C | 50% | 1013.4 hPa | 0 mm | - | - | - |
| 1787665531 | 23.89° C | 49% | 1013.5 hPa | 0 mm | - | - | - |
| 1787664625 | 23.33° C | 50% | 1013.4 hPa | 0 mm | - | - | - |
* Rain latest hour (hover to see other rain measurements)
** Current wind speed in m/s (hover to see current wind gust speed)